When you browse on this site, cookies collect data to enhance your experience and personalize the content and advertising you see.
Visit our Privacy Policy to learn more. By continuing to use the site, you agree to this use of cookies and data.
  • In Austria
  • List of Countries
  • For 7 days
  • Water Temperature
  • Satellite Maps
  • Weather Map
  • News
  • Weather Widgets
  • user-avatar
    Login

    Hourly Weather Nuwejba

    Today, 21 November, Wednesday

    Time Temperature Precipitation Wind Pressure Humidity
    00:00 +19°C° 0 mm 1 mps 695 mmHg 59%
    01:00 +18°C° 0 mm 1 mps 694 mmHg 59%
    02:00 +18°C° 0 mm 1 mps 694 mmHg 60%
    03:00 +18°C° 0 mm 1 mps 694 mmHg 60%
    04:00 +16°C° 0 mm 1 mps 694 mmHg 60%
    05:00 +16°C° 0 mm 1 mps 694 mmHg 61%
    06:00 +18°C° 0 mm 1 mps 694 mmHg 57%
    07:00 +19°C° 0 mm 1 mps 694 mmHg 53%
    08:00 +20°C° 0 mm 1 mps 695 mmHg 49%
    09:00 +21°C° 0 mm 1 mps 695 mmHg 44%
    10:00 +21°C° 0 mm 2 mps 695 mmHg 39%
    11:00 +24°C° 0 mm 2 mps 695 mmHg 34%
    12:00 +24°C° 0 mm 2 mps 694 mmHg 33%
    13:00 +25°C° 0 mm 2 mps 694 mmHg 31%
    14:00 +25°C° 0 mm 3 mps 694 mmHg 29%
    15:00 +24°C° 0 mm 2 mps 694 mmHg 32%
    16:00 +23°C° 0 mm 2 mps 693 mmHg 35%
    17:00 +21°C° 0 mm 2 mps 693 mmHg 38%
    18:00 +20°C° 0 mm 2 mps 693 mmHg 42%
    19:00 +20°C° 0 mm 2 mps 693 mmHg 45%
    20:00 +19°C° 0 mm 2 mps 693 mmHg 48%
    21:00 +18°C° 0 mm 2 mps 693 mmHg 50%
    22:00 +18°C° 0 mm 2 mps 693 mmHg 52%
    23:00 +19°C° 0 mm 1 mps 693 mmHg 55%

    Tomorrow, 22 November, Thursday

    Time Temperature Precipitation Wind Pressure Humidity
    00:00 +17°C° 0 mm 2 mps 693 mmHg 55%
    01:00 +17°C° 0 mm 2 mps 692 mmHg 55%
    02:00 +17°C° 0 mm 2 mps 692 mmHg 55%
    03:00 +17°C° 0 mm 2 mps 692 mmHg 55%
    04:00 +16°C° 0 mm 2 mps 692 mmHg 56%
    05:00 +16°C° 0 mm 2 mps 692 mmHg 56%
    06:00 +17°C° 0.1 mm 2 mps 692 mmHg 52%
    07:00 +17°C° 0.1 mm 2 mps 692 mmHg 48%
    08:00 +19°C° 0.1 mm 1 mps 693 mmHg 44%
    09:00 +19°C° 0 mm 2 mps 693 mmHg 39%
    10:00 +20°C° 0 mm 2 mps 693 mmHg 35%
    11:00 +21°C° 0 mm 2 mps 693 mmHg 31%
    12:00 +22°C° 0 mm 3 mps 692 mmHg 30%
    13:00 +22°C° 0 mm 3 mps 692 mmHg 29%
    14:00 +24°C° 0 mm 3 mps 691 mmHg 28%
    15:00 +22°C° 0 mm 3 mps 691 mmHg 30%
    16:00 +21°C° 0 mm 3 mps 691 mmHg 32%
    17:00 +20°C° 0 mm 3 mps 691 mmHg 35%
    18:00 +19°C° 0 mm 2 mps 691 mmHg 37%
    19:00 +19°C° 0 mm 2 mps 691 mmHg 39%
    20:00 +18°C° 0 mm 2 mps 692 mmHg 41%
    21:00 +18°C° 0 mm 1 mps 691 mmHg 42%
    22:00 +18°C° 0 mm 1 mps 691 mmHg 43%
    23:00 +16°C° 0 mm 1 mps 691 mmHg 44%

    Day after tomorrow, 23 November, Friday

    Time Temperature Precipitation Wind Pressure Humidity
    00:00 +16°C° 0 mm 1 mps 691 mmHg 44%
    01:00 +16°C° 0 mm 2 mps 691 mmHg 45%
    02:00 +15°C° 0 mm 2 mps 690 mmHg 46%
    03:00 +15°C° 0 mm 2 mps 690 mmHg 47%
    04:00 +15°C° 0 mm 2 mps 690 mmHg 48%
    05:00 +15°C° 0 mm 2 mps 690 mmHg 50%
    06:00 +15°C° 0 mm 2 mps 690 mmHg 50%
    07:00 +16°C° 0 mm 2 mps 691 mmHg 50%
    08:00 +16°C° 0 mm 2 mps 692 mmHg 50%
    09:00 +17°C° 0 mm 3 mps 692 mmHg 46%
    10:00 +18°C° 0 mm 3 mps 692 mmHg 42%
    11:00 +19°C° 0 mm 4 mps 692 mmHg 37%
    12:00 +19°C° 0 mm 4 mps 691 mmHg 36%
    13:00 +20°C° 0 mm 4 mps 691 mmHg 35%
    14:00 +20°C° 0 mm 5 mps 691 mmHg 34%
    15:00 +19°C° 0 mm 5 mps 690 mmHg 39%
    16:00 +17°C° 0 mm 5 mps 690 mmHg 45%
    17:00 +16°C° 0 mm 5 mps 690 mmHg 51%
    18:00 +17°C° 0 mm 4 mps 690 mmHg 56%
    19:00 +15°C° 0 mm 4 mps 691 mmHg 60%
    20:00 +14°C° 0 mm 3 mps 691 mmHg 64%
    21:00 +14°C° 0.1 mm 3 mps 691 mmHg 66%
    22:00 +14°C° 0.1 mm 3 mps 691 mmHg 68%
    23:00 +14°C° 0.1 mm 2 mps 691 mmHg 70%

    24 November, Saturday

    Time Temperature Precipitation Wind Pressure Humidity
    00:00 +14°C° 0 mm 2 mps 691 mmHg 72%
    01:00 +13°C° 0 mm 2 mps 691 mmHg 74%
    02:00 +13°C° 0 mm 2 mps 690 mmHg 76%
    03:00 +13°C° 0 mm 2 mps 690 mmHg 78%
    04:00 +12°C° 0 mm 2 mps 690 mmHg 79%
    05:00 +12°C° 0 mm 2 mps 690 mmHg 80%
    06:00 +13°C° 0 mm 2 mps 691 mmHg 75%
    07:00 +13°C° 0 mm 2 mps 692 mmHg 71%
    08:00 +14°C° 0 mm 2 mps 692 mmHg 66%
    09:00 +14°C° 0 mm 3 mps 692 mmHg 60%
    10:00 +16°C° 0 mm 3 mps 692 mmHg 55%
    11:00 +16°C° 0 mm 3 mps 692 mmHg 49%
    12:00 +17°C° 0 mm 3 mps 692 mmHg 48%
    13:00 +17°C° 0 mm 3 mps 692 mmHg 47%
    14:00 +18°C° 0 mm 3 mps 692 mmHg 46%
    15:00 +17°C° 0 mm 3 mps 692 mmHg 50%
    16:00 +16°C° 0 mm 3 mps 692 mmHg 53%
    17:00 +16°C° 0 mm 3 mps 692 mmHg 56%
    18:00 +14°C° 0 mm 3 mps 692 mmHg 60%
    19:00 +15°C° 0 mm 2 mps 693 mmHg 63%
    20:00 +15°C° 0 mm 2 mps 693 mmHg 66%
    21:00 +14°C° 0 mm 2 mps 693 mmHg 68%
    22:00 +14°C° 0 mm 2 mps 693 mmHg 69%
    23:00 +14°C° 0 mm 2 mps 693 mmHg 70%

    25 November, Sunday

    Time Temperature Precipitation Wind Pressure Humidity
    00:00 +13°C° 0 mm 2 mps 693 mmHg 72%
    01:00 +13°C° 0 mm 2 mps 693 mmHg 74%
    02:00 +13°C° 0 mm 1 mps 693 mmHg 75%
    03:00 +13°C° 0 mm 2 mps 693 mmHg 77%
    04:00 +12°C° 0 mm 2 mps 693 mmHg 79%
    05:00 +12°C° 0 mm 2 mps 693 mmHg 81%
    06:00 +13°C° 0 mm 2 mps 693 mmHg 78%
    07:00 +13°C° 0 mm 2 mps 694 mmHg 75%
    08:00 +14°C° 0 mm 2 mps 694 mmHg 73%
    09:00 +15°C° 0 mm 2 mps 694 mmHg 67%
    10:00 +16°C° 0 mm 2 mps 694 mmHg 61%
    11:00 +17°C° 0 mm 2 mps 694 mmHg 55%
    12:00 +17°C° 0 mm 2 mps 694 mmHg 52%
    13:00 +18°C° 0 mm 3 mps 694 mmHg 49%
    14:00 +19°C° 0 mm 3 mps 693 mmHg 46%
    15:00 +18°C° 0 mm 3 mps 693 mmHg 49%
    16:00 +18°C° 0 mm 3 mps 693 mmHg 52%
    17:00 +17°C° 0 mm 3 mps 693 mmHg 54%
    18:00 +17°C° 0 mm 2 mps 694 mmHg 57%
    19:00 +16°C° 0 mm 2 mps 694 mmHg 60%
    20:00 +16°C° 0 mm 2 mps 694 mmHg 62%
    21:00 +16°C° 0 mm 2 mps 694 mmHg 64%
    22:00 +15°C° 0 mm 2 mps 693 mmHg 66%
    23:00 +15°C° 0 mm 1 mps 693 mmHg 68%

    26 November, Monday

    Time Temperature Precipitation Wind Pressure Humidity
    00:00 +15°C° 0 mm 1 mps 693 mmHg 70%
    01:00 +14°C° 0 mm 1 mps 693 mmHg 72%
    02:00 +14°C° 0 mm 1 mps 692 mmHg 74%
    03:00 +13°C° 0 mm 1 mps 692 mmHg 75%
    04:00 +13°C° 0 mm 2 mps 692 mmHg 76%
    05:00 +13°C° 0 mm 2 mps 692 mmHg 77%
    06:00 +14°C° 0 mm 2 mps 693 mmHg 73%
    07:00 +14°C° 0 mm 2 mps 693 mmHg 69%
    08:00 +15°C° 0 mm 2 mps 693 mmHg 65%
    09:00 +16°C° 0 mm 2 mps 693 mmHg 58%
    10:00 +17°C° 0 mm 2 mps 693 mmHg 51%
    11:00 +19°C° 0 mm 2 mps 693 mmHg 43%
    12:00 +19°C° 0 mm 2 mps 693 mmHg 40%
    13:00 +20°C° 0 mm 2 mps 692 mmHg 37%
    14:00 +20°C° 0 mm 2 mps 692 mmHg 34%
    15:00 +20°C° 0 mm 2 mps 692 mmHg 36%
    16:00 +19°C° 0 mm 2 mps 692 mmHg 38%
    17:00 +19°C° 0 mm 1 mps 692 mmHg 40%
    18:00 +18°C° 0 mm 2 mps 692 mmHg 42%
    19:00 +17°C° 0 mm 2 mps 692 mmHg 44%
    20:00 +17°C° 0 mm 2 mps 692 mmHg 45%
    21:00 +17°C° 0 mm 2 mps 692 mmHg 46%
    22:00 +17°C° 0 mm 2 mps 692 mmHg 47%
    23:00 +16°C° 0 mm 2 mps 692 mmHg 48%
    Show more